GFSGL_850_dewp_147.txt.gz
Dewpoint
-1 -2 -5 -7 -12 -15 -10 -10 -8 -0 3 4 4 4 4 5 4 3 3 3 3 3 3 3 3 4 5 6 7 8 8 8 8 8 8 8 8 7 7 6 6 6 6
-2 -1 -3 -5 -9 -15 -16 -17 -15 -5 3 5 5 3 3 4 3 3 4 4 4 3 3 3 4 4 4 5 5 6 6 7 7 7 7 7 7 7 6 5 6 5 4
-3 -1 -2 -5 -7 -12 -17 -18 -19 -7 -2 4 4 3 4 5 5 5 3 1 1 3 4 3 3 3 4 5 4 5 5 5 6 6 6 6 6 5 5 5 4 1 -2
-3 -1 -2 -4 -5 -8 -14 -18 -19 -20 -9 -0 3 4 4 4 4 3 -1 -3 2 2 3 4 4 4 3 3 4 4 4 4 5 5 5 5 5 3 -2 -7 -19 -24 -24
-2 -2 -2 -3 -4 -5 -9 -16 -19 -21 -21 -18 -8 2 3 2 -3 -11 -15 -1 -1 -4 -1 1 2 2 2 -3 -5 -6 -7 -11 -15 -16 -17 -18 -19 -17 -18 -21 -22 -23 -23
-3 -2 -1 -2 -3 -4 -5 -9 -16 -19 -21 -20 -20 -18 -17 -17 -18 -19 -19 -16 -15 -14 -14 -15 -16 -17 -18 -20 -22 -23 -23 -24 -23 -23 -23 -22 -21 -22 -22 -22 -22 -22 -20
-3 -2 -1 -1 -1 -3 -4 -5 -8 -15 -19 -20 -19 -19 -18 -17 -18 -19 -20 -20 -19 -18 -17 -17 -19 -20 -21 -23 -24 -24 -24 -23 -22 -22 -21 -21 -21 -21 -21 -20 -19 -20 -20
-7 -6 -2 -0 -1 -1 -2 -3 -4 -7 -14 -19 -19 -18 -18 -18 -20 -20 -21 -22 -22 -20 -20 -20 -20 -20 -21 -22 -22 -22 -22 -22 -22 -21 -21 -21 -21 -20 -20 -20 -20 -20 -20
-7 -7 -5 -1 0 -0 -1 -2 -3 -4 -6 -12 -19 -19 -18 -18 -20 -20 -20 -21 -21 -22 -21 -21 -20 -21 -21 -21 -22 -21 -20 -20 -19 -20 -20 -20 -20 -20 -20 -20 -19 -18 -17
-7 -7 -7 -4 -1 -0 -0 -1 -2 -3 -4 -6 -11 -17 -19 -18 -19 -19 -19 -20 -21 -21 -21 -21 -21 -20 -22 -21 -20 -20 -19 -20 -19 -19 -19 -19 -19 -19 -18 -18 -18 -17 -16
-6 -6 -7 -8 -7 -5 -2 -1 -1 -1 -3 -4 -6 -9 -15 -18 -18 -18 -19 -19 -20 -20 -20 -20 -21 -21 -21 -21 -20 -19 -18 -18 -18 -18 -17 -17 -17 -17 -17 -17 -17 -17 -16
-6 -6 -7 -7 -8 -8 -7 -4 -1 -1 -1 -2 -4 -5 -7 -11 -17 -18 -18 -18 -19 -19 -19 -19 -19 -20 -20 -20 -19 -18 -18 -18 -17 -16 -16 -15 -16 -16 -16 -16 -16 -16 -15
-5 -6 -7 -11 -11 -8 -6 -5 -5 -3 -1 -1 -2 -3 -4 -5 -9 -15 -18 -18 -18 -18 -18 -18 -18 -18 -18 -18 -17 -17 -17 -17 -16 -15 -14 -14 -15 -15 -16 -16 -16 -16 -16
-6 -7 -10 -11 -10 -8 -5 -5 -4 -3 -3 -2 -1 -2 -2 -4 -4 -7 -13 -17 -17 -17 -17 -17 -17 -17 -16 -16 -15 -15 -15 -15 -16 -15 -13 -14 -14 -14 -15 -16 -16 -15 -15
-8 -9 -9 -9 -9 -9 -8 -7 -6 -5 -4 -2 -2 -1 -1 -2 -2 -4 -6 -12 -16 -17 -16 -15 -14 -14 -15 -15 -13 -14 -14 -15 -17 -15 -14 -14 -14 -14 -15 -15 -15 -15 -14
-8 -8 -7 -6 -6 -6 -6 -7 -8 -8 -5 -3 -2 -1 -1 -1 -2 -3 -4 -8 -13 -15 -14 -14 -13 -13 -13 -13 -13 -13 -13 -14 -16 -16 -15 -14 -13 -15 -15 -14 -14 -14 -13
-7 -7 -7 -7 -7 -7 -6 -6 -6 -7 -7 -6 -3 -1 -0 -0 -1 -2 -3 -5 -10 -13 -14 -14 -13 -12 -13 -12 -12 -12 -12 -12 -14 -15 -14 -15 -14 -14 -13 -14 -14 -13 -12
-8 -8 -7 -7 -7 -6 -6 -6 -6 -6 -5 -5 -5 -4 -1 -0 -0 -1 -2 -4 -8 -11 -12 -13 -13 -13 -12 -11 -11 -11 -11 -11 -14 -14 -14 -16 -14 -12 -13 -14 -13 -12 -12
-9 -8 -8 -7 -7 -6 -6 -6 -5 -5 -4 -4 -3 -4 -4 -1 0 -0 -1 -3 -4 -7 -11 -12 -12 -12 -12 -11 -11 -11 -10 -11 -14 -13 -14 -15 -15 -12 -13 -13 -13 -12 -12
-0 -0 -2 -3 -5 -6 -5 -4 -3 -3 -3 -3 -2 -2 -2 -2 -0 0 -0 -1 -2 -4 -7 -10 -9 -9 -4 -8 -7 -9 -9 -11 -13 -12 -13 -13 -13 -12 -12 -12 -12 -11 -11
-2 -1 -0 0 -1 -4 -4 -3 -2 -2 -2 -2 -2 -1 -1 -1 -1 -0 -0 -0 -1 -2 -4 -5 -4 -4 -4 -4 -7 -8 -6 -6 -11 -11 -13 -12 -12 -11 -11 -11 -11 -11 -11
-1 -1 -3 -4 -3 -3 -2 -2 -1 -1 -1 -1 -1 -1 -1 -1 -1 -1 -0 -1 -1 -1 -3 -5 -4 -3 -4 -6 -7 -6 -4 -6 -11 -11 -12 -11 -11 -11 -11 -11 -11 -11 -11
-1 -1 -1 -3 -3 -2 -1 -1 -1 -1 -1 -1 -1 -1 -1 -1 -1 -1 -1 -1 -2 -2 -3 -3 -4 -4 -4 -5 -5 -4 -5 -8 -10 -10 -10 -10 -10 -10 -11 -11 -11 -11 -10
-1 -1 -1 -3 -3 -3 -3 -1 -1 -1 -1 -1 -1 -1 -1 -1 -2 -2 -2 -3 -3 -3 -3 -4 -4 -4 -4 -5 -5 -5 -6 -8 -8 -9 -9 -10 -10 -10 -11 -11 -11 -11 -11
-0 -1 -2 -2 -1 -4 -4 -3 -2 -2 -1 -1 -1 -1 -2 -2 -2 -2 -3 -4 -4 -4 -4 -4 -4 -4 -5 -5 -5 -6 -8 -9 -10 -9 -8 -9 -9 -10 -10 -10 -11 -11 -11
-1 -0 -1 -1 -2 -2 -4 -3 -2 -2 -2 -2 -2 -2 -2 -3 -3 -3 -3 -4 -4 -4 -5 -5 -5 -5 -5 -5 -7 -10 -12 -12 -11 -9 -9 -11 -12 -12 -12 -12 -13 -12 -11

GFSGL_850_dewp_150.txt.gz
Dewpoint
-3 -3 -2 -1 -4 -6 -12 -17 -16 -17 -6 2 3 3 3 4 3 3 3 3 3 3 3 3 3 3 4 4 4 5 7 7 7 7 7 7 7 6 7 7 6 5 5
-3 -3 -3 -2 -2 -5 -8 -14 -18 -19 -12 -1 2 2 3 3 3 3 4 4 4 3 4 3 3 3 3 4 4 4 5 5 6 7 7 7 7 7 6 6 5 5 4
-3 -3 -3 -3 -1 -4 -5 -9 -17 -19 -20 -9 1 3 3 3 4 4 4 3 -1 -1 1 2 2 3 2 2 3 3 4 4 4 5 6 6 6 5 5 4 3 -1 -7
-2 -1 -2 -3 -1 -2 -4 -5 -9 -18 -20 -21 -13 1 3 4 4 3 2 -3 -9 1 -0 2 4 4 3 2 2 3 2 3 4 4 4 5 4 4 3 -9 -21 -23 -23
-3 -4 -3 -2 -1 -1 -2 -4 -5 -9 -17 -20 -20 -16 -4 2 2 -2 -11 -14 -10 -4 -9 -8 -5 -3 -1 -3 -8 -14 -12 -7 -10 -13 -15 -15 -17 -18 -18 -20 -23 -23 -23
-4 -5 -5 -3 -1 -0 -1 -2 -4 -5 -8 -17 -21 -20 -19 -17 -17 -17 -18 -18 -17 -17 -17 -17 -17 -18 -19 -20 -22 -23 -24 -25 -24 -24 -24 -23 -21 -22 -22 -23 -23 -23 -22
-7 -8 -7 -7 -7 -3 -1 -0 -2 -3 -5 -7 -14 -20 -21 -19 -19 -18 -18 -19 -19 -18 -18 -18 -19 -20 -22 -23 -24 -25 -25 -24 -24 -23 -23 -22 -22 -21 -21 -21 -21 -21 -21
-7 -7 -7 -7 -6 -3 -1 -0 -0 -2 -3 -4 -6 -12 -19 -19 -19 -19 -19 -19 -20 -20 -20 -20 -20 -21 -21 -22 -23 -24 -24 -23 -22 -22 -21 -21 -21 -21 -21 -21 -20 -20 -20
-3 -6 -7 -6 -6 -7 -3 -1 -0 -0 -2 -3 -4 -6 -10 -17 -20 -19 -19 -20 -20 -21 -22 -21 -20 -21 -21 -21 -22 -22 -22 -21 -21 -21 -20 -20 -20 -20 -20 -20 -20 -20 -21
-3 -4 -6 -5 -5 -7 -7 -3 -1 -0 -0 -1 -2 -4 -5 -8 -15 -19 -18 -18 -19 -20 -21 -21 -21 -21 -21 -21 -21 -22 -21 -21 -21 -20 -20 -20 -20 -19 -19 -18 -18 -19 -19
-4 -4 -4 -5 -5 -6 -6 -6 -5 -2 -1 -1 -1 -2 -2 -3 -6 -10 -17 -18 -19 -19 -20 -20 -20 -21 -21 -20 -21 -21 -21 -20 -19 -19 -19 -19 -19 -19 -18 -17 -17 -18 -18
-3 -4 -4 -4 -4 -6 -6 -7 -6 -4 -3 -2 -1 -1 -2 -3 -4 -7 -11 -16 -17 -18 -19 -19 -19 -19 -19 -19 -20 -20 -19 -19 -18 -19 -18 -17 -18 -17 -17 -16 -17 -17 -17
-3 -4 -3 -4 -5 -7 -9 -9 -5 -4 -3 -3 -2 -2 -1 -1 -2 -4 -6 -11 -16 -17 -17 -18 -18 -18 -18 -18 -19 -19 -18 -18 -17 -17 -17 -16 -16 -16 -15 -16 -17 -16 -16
-4 -5 -4 -6 -8 -8 -8 -8 -7 -5 -3 -3 -2 -2 -3 -2 -2 -3 -4 -6 -10 -15 -16 -16 -17 -17 -17 -16 -17 -17 -17 -16 -16 -17 -16 -16 -17 -16 -14 -15 -17 -17 -16
-4 -5 -7 -8 -8 -7 -7 -7 -6 -7 -6 -4 -3 -2 -2 -2 -2 -2 -2 -4 -6 -9 -14 -15 -15 -15 -15 -15 -16 -15 -14 -14 -14 -16 -17 -18 -17 -15 -14 -15 -16 -16 -16
-4 -6 -7 -7 -6 -6 -7 -6 -5 -5 -5 -4 -4 -3 -2 -2 -2 -2 -2 -3 -5 -8 -12 -14 -14 -14 -14 -14 -14 -14 -13 -13 -13 -14 -16 -17 -15 -14 -14 -16 -15 -15 -15
-6 -6 -7 -7 -8 -8 -8 -7 -8 -7 -6 -5 -5 -4 -4 -3 -1 -2 -2 -3 -4 -6 -9 -12 -13 -14 -14 -13 -13 -13 -13 -12 -11 -11 -13 -15 -13 -15 -15 -15 -15 -15 -15
-7 -7 -7 -7 -8 -7 -7 -6 -5 -5 -6 -6 -5 -5 -4 -4 -3 -1 -1 -3 -3 -5 -7 -9 -11 -12 -13 -13 -12 -11 -10 -10 -11 -10 -12 -15 -13 -15 -16 -15 -15 -14 -14
-4 -3 -2 -1 -1 -2 -2 -3 -4 -5 -5 -5 -5 -4 -3 -2 -2 -2 -1 -1 -1 -2 -4 -6 -7 -10 -11 -10 -5 -5 -9 -8 -9 -9 -11 -14 -13 -15 -15 -14 -14 -14 -13
-0 0 -1 -1 -1 0 -1 -1 -2 -3 -3 -2 -2 -2 -3 -2 -2 -1 -1 -1 -1 -1 -2 -4 -6 -7 -5 -7 -4 -4 -5 -5 -5 -7 -5 -10 -12 -14 -14 -13 -13 -12 -12
-0 0 0 -0 -2 -3 -3 -3 -2 -2 -1 -1 -1 -1 -1 -2 -1 -1 -1 -1 -1 -1 -1 -2 -4 -3 -4 -5 -4 -4 -4 -5 -5 -6 -5 -10 -12 -13 -14 -13 -12 -12 -12
-0 -1 -1 -1 -2 -2 -2 -2 -2 -2 -2 -2 -2 -2 -1 -1 -1 -1 -1 -1 -1 -2 -2 -2 -3 -3 -4 -4 -4 -4 -4 -5 -6 -5 -6 -9 -11 -13 -13 -12 -12 -11 -11
0 -0 -1 -2 -2 -2 -3 -4 -3 -2 -2 -2 -2 -1 -1 -1 -1 -1 -1 -1 -2 -2 -2 -3 -3 -4 -4 -4 -4 -4 -5 -5 -5 -5 -7 -9 -11 -12 -12 -11 -11 -10 -10
0 0 0 -0 -1 -2 -2 -2 -4 -4 -2 -2 -2 -2 -1 -1 -1 -1 -2 -2 -2 -3 -3 -3 -4 -4 -4 -4 -4 -5 -5 -5 -5 -6 -8 -9 -10 -11 -11 -11 -10 -10 -10
-4 -2 -2 -2 -1 -1 -2 -2 -2 -4 -3 -3 -2 -2 -2 -2 -2 -2 -2 -3 -3 -4 -4 -4 -4 -4 -5 -5 -5 -5 -5 -5 -6 -7 -8 -8 -9 -9 -11 -10 -10 -10 -11
-5 -5 -5 -5 -6 -4 -2 -1 -2 -2 -3 -3 -2 -3 -3 -2 -3 -3 -3 -3 -4 -4 -5 -5 -5 -5 -5 -5 -5 -5 -6 -6 -7 -10 -10 -9 -9 -10 -10 -10 -11 -12 -13

GFSGL_850_dewp_156.txt.gz
Dewpoint
-6 -5 -3 -4 -4 -3 -4 -3 -2 -3 -5 -9 -17 -18 -6 2 2 2 3 3 3 3 4 2 -2 1 3 3 3 3 4 5 5 5 5 4 5 6 6 6 6 5 5
-7 -6 -6 -4 -5 -3 -2 -2 -2 -1 -3 -5 -10 -18 -19 -6 1 2 2 3 3 2 2 -3 0 1 2 3 3 2 2 3 4 5 4 4 4 4 5 5 5 5 4
-8 -7 -7 -5 -3 -4 -4 -2 -2 -2 -2 -3 -5 -10 -18 -18 -6 1 2 3 2 1 -1 -12 -4 -2 3 3 3 3 2 2 3 3 4 4 4 4 4 4 4 1 -7
-3 -5 -6 -6 -6 -7 -7 -5 -3 -2 -1 -2 -3 -5 -8 -16 -20 -12 -2 1 1 -1 -11 -18 -13 -14 -9 -1 2 2 -0 -1 -7 -6 1 3 3 3 3 -0 -7 -14 -17
-3 -3 -4 -4 -3 -3 -5 -7 -6 -5 -2 -0 -1 -2 -5 -7 -14 -20 -19 -14 -10 -14 -18 -17 -17 -18 -17 -18 -18 -18 -18 -19 -21 -15 -9 -9 -9 -11 -14 -18 -22 -24 -23
-3 -4 -4 -4 -3 -3 -3 -4 -6 -6 -5 -3 -0 -0 -2 -4 -7 -13 -19 -19 -18 -19 -18 -18 -18 -19 -20 -21 -22 -22 -24 -25 -25 -24 -24 -24 -22 -22 -23 -23 -22 -21 -20
-3 -3 -3 -3 -4 -4 -4 -3 -4 -5 -5 -5 -4 -1 0 -1 -4 -8 -13 -18 -18 -18 -18 -19 -19 -19 -19 -21 -22 -24 -24 -25 -25 -24 -24 -22 -22 -22 -21 -21 -21 -21 -20
-4 -4 -4 -3 -4 -4 -4 -3 -3 -5 -5 -5 -5 -2 -0 0 -1 -4 -7 -12 -16 -17 -17 -18 -18 -18 -18 -19 -20 -21 -23 -24 -24 -24 -23 -22 -22 -21 -21 -21 -20 -20 -19
-5 -7 -6 -5 -4 -4 -4 -4 -4 -4 -4 -5 -6 -4 -1 0 0 -1 -4 -6 -9 -14 -16 -16 -17 -17 -18 -19 -19 -19 -21 -22 -22 -22 -22 -21 -21 -21 -21 -20 -20 -19 -18
-6 -6 -6 -4 -4 -4 -4 -3 -4 -3 -3 -4 -5 -5 -4 -3 -1 -0 -1 -4 -6 -8 -13 -15 -16 -17 -17 -17 -18 -19 -20 -21 -21 -21 -20 -21 -21 -21 -21 -20 -19 -18 -17
-5 -5 -5 -5 -4 -5 -4 -4 -3 -3 -3 -4 -5 -5 -6 -6 -5 -3 -1 -2 -3 -5 -7 -11 -14 -15 -16 -17 -17 -18 -19 -18 -19 -19 -18 -18 -19 -19 -19 -19 -18 -17 -16
-4 -4 -4 -3 -3 -3 -4 -4 -3 -4 -6 -7 -7 -8 -8 -7 -6 -4 -2 -1 -2 -3 -4 -6 -10 -13 -14 -14 -14 -17 -17 -17 -18 -18 -18 -17 -18 -18 -18 -17 -17 -17 -16
-4 -4 -3 -3 -3 -3 -4 -5 -7 -7 -7 -8 -7 -8 -8 -6 -4 -3 -2 -2 -2 -2 -2 -3 -6 -10 -12 -13 -12 -13 -14 -16 -17 -18 -18 -17 -17 -16 -16 -16 -16 -16 -15
-3 -4 -4 -4 -3 -4 -6 -7 -7 -7 -6 -6 -6 -5 -5 -6 -6 -4 -3 -2 -2 -2 -2 -3 -4 -7 -10 -12 -11 -11 -12 -14 -16 -16 -16 -14 -14 -15 -16 -15 -15 -15 -14
-5 -5 -6 -6 -5 -6 -6 -7 -7 -7 -6 -6 -6 -5 -5 -4 -5 -4 -3 -2 -1 -2 -3 -4 -4 -5 -7 -9 -11 -11 -11 -11 -13 -14 -13 -12 -12 -13 -15 -15 -14 -14 -14
-6 -7 -7 -7 -7 -7 -7 -8 -7 -6 -6 -6 -5 -4 -5 -3 -1 -2 -2 -2 -1 -1 -2 -3 -4 -4 -5 -7 -8 -11 -12 -12 -12 -12 -12 -11 -11 -12 -13 -15 -14 -13 -14
-6 -5 -4 -3 -3 -2 -2 -1 -1 -1 -1 -1 -1 -1 -1 -1 0 0 -0 -0 -0 -1 -2 -2 -3 -3 -4 -4 -6 -7 -10 -11 -11 -11 -12 -10 -11 -10 -12 -14 -13 -15 -15
-1 -1 -1 -1 -1 -1 -0 -1 -1 -1 -1 -1 -1 -2 -2 -1 -2 -1 -0 -1 -1 -1 -1 -1 -1 -0 -1 -2 -3 -4 -4 -5 -7 -9 -9 -8 -8 -9 -11 -12 -5 -13 -14
-2 -1 -1 -1 -1 -1 -1 -1 -1 -1 -1 -1 -2 -2 -2 -2 -1 -1 -1 -1 -1 -1 -1 -2 -2 -2 -2 -2 -3 -3 -3 -4 -4 -5 -7 -7 -6 -8 -9 -5 -5 -8 -14
-3 -1 0 -1 -0 -0 -1 -1 -2 -2 -2 -3 -3 -3 -3 -3 -3 -2 -2 -2 -2 -2 -2 -2 -2 -2 -2 -3 -3 -3 -4 -4 -4 -5 -5 -5 -5 -6 -5 -5 -6 -8 -8
-2 -2 -2 -1 -1 -0 -1 -1 -1 -1 -2 -2 -3 -4 -3 -2 -2 -2 -2 -2 -2 -2 -2 -2 -2 -2 -3 -3 -3 -4 -4 -4 -4 -4 -4 -5 -5 -5 -5 -6 -7 -7 -9
-5 -4 -2 -2 -3 -1 -1 -1 -1 -1 -1 -1 -2 -3 -4 -3 -2 -2 -2 -2 -2 -2 -2 -2 -2 -2 -3 -3 -3 -4 -4 -4 -4 -4 -5 -5 -5 -5 -6 -7 -7 -7 -8
-6 -5 -5 -4 -5 -6 -6 -5 -2 -3 -2 -1 -1 -2 -3 -3 -3 -3 -2 -2 -2 -2 -2 -2 -2 -2 -3 -3 -4 -4 -4 -5 -5 -5 -5 -5 -5 -6 -6 -7 -7 -8 -10
-10 -7 -7 -6 -7 -5 -5 -5 -5 -4 -4 -4 -2 -2 -2 -3 -3 -3 -3 -3 -3 -3 -2 -2 -3 -3 -4 -4 -4 -4 -5 -5 -5 -5 -5 -5 -5 -6 -6 -7 -8 -8 -10
-10 -9 -8 -6 -5 -8 -7 -5 -4 -4 -4 -4 -4 -3 -2 -2 -3 -3 -3 -3 -3 -3 -3 -3 -4 -4 -4 -4 -5 -5 -5 -5 -5 -5 -5 -5 -6 -6 -7 -7 -8 -9 -11
-14 -11 -11 -11 -11 -10 -6 -4 -4 -3 -3 -4 -4 -4 -3 -3 -2 -3 -3 -3 -4 -4 -4 -4 -4 -5 -5 -5 -5 -5 -5 -5 -5 -5 -6 -6 -6 -7 -7 -8 -9 -9 -11

GFSGL_850_dewp_159.txt.gz
Dewpoint
-8 -8 -7 -7 -6 -4 -4 -3 -2 -2 -2 -2 -3 -5 -11 -18 -7 1 2 3 3 3 3 2 1 -3 1 1 3 3 3 3 4 4 4 4 4 5 4 5 5 5 4
-3 -5 -7 -7 -6 -5 -4 -4 -3 -2 -2 -2 -1 -3 -5 -11 -18 -14 -2 2 3 3 3 2 -0 -8 -2 1 1 2 2 2 3 3 4 3 3 2 3 4 4 3 4
-3 -3 -3 -3 -5 -5 -6 -7 -6 -5 -4 -2 -1 -1 -2 -4 -9 -17 -17 -6 -0 2 2 1 -3 -13 -7 -3 3 3 3 2 2 2 3 3 3 3 3 4 4 3 -2
-3 -3 -3 -3 -3 -4 -3 -3 -4 -6 -7 -7 -3 -1 -1 -2 -4 -8 -14 -17 -11 -4 -1 -2 -12 -16 -13 -13 -9 -4 -1 0 -1 -3 -9 -6 2 3 3 3 0 -8 -14
-3 -3 -3 -3 -3 -4 -3 -3 -4 -3 -4 -5 -6 -5 -3 -0 -1 -3 -7 -13 -17 -17 -14 -12 -15 -15 -15 -16 -17 -18 -18 -19 -19 -20 -19 -13 -6 -4 -5 -10 -16 -21 -23
-5 -5 -4 -4 -3 -3 -3 -4 -5 -4 -3 -4 -5 -5 -5 -4 -1 -0 -2 -6 -11 -16 -17 -15 -16 -16 -17 -17 -18 -19 -21 -22 -23 -23 -23 -23 -22 -21 -21 -22 -23 -22 -20
-6 -6 -6 -6 -6 -6 -5 -5 -5 -4 -3 -3 -4 -4 -4 -4 -3 -0 0 -2 -5 -9 -14 -17 -17 -16 -14 -14 -16 -18 -21 -22 -23 -23 -23 -22 -22 -22 -22 -22 -21 -21 -20
-7 -7 -7 -7 -8 -8 -6 -6 -5 -4 -4 -3 -3 -4 -4 -4 -3 -1 0 0 -2 -5 -7 -12 -16 -17 -17 -15 -15 -16 -18 -20 -22 -23 -22 -21 -20 -20 -20 -20 -20 -20 -20
-6 -6 -6 -6 -6 -6 -6 -6 -5 -5 -4 -4 -4 -4 -3 -4 -3 -1 0 0 -0 -2 -4 -6 -11 -15 -16 -15 -16 -17 -18 -19 -20 -21 -21 -21 -20 -20 -20 -20 -20 -20 -20
-4 -4 -4 -4 -4 -4 -4 -5 -4 -4 -3 -3 -3 -3 -3 -4 -3 -2 -1 -0 -0 -0 -1 -3 -6 -9 -13 -14 -15 -15 -16 -17 -18 -19 -20 -20 -20 -20 -20 -20 -20 -20 -19
-5 -5 -4 -4 -3 -3 -3 -3 -4 -3 -3 -4 -5 -6 -6 -7 -7 -6 -5 -2 -2 -1 -1 -1 -3 -6 -9 -12 -14 -16 -16 -15 -15 -17 -18 -18 -18 -18 -18 -19 -18 -18 -18
-5 -4 -4 -4 -4 -4 -3 -3 -4 -5 -6 -7 -7 -8 -8 -8 -7 -7 -5 -3 -2 -2 -2 -2 -2 -3 -5 -8 -11 -14 -14 -13 -14 -15 -17 -17 -17 -17 -16 -17 -17 -16 -16
-5 -5 -4 -5 -5 -5 -4 -4 -6 -6 -6 -7 -6 -6 -6 -7 -5 -5 -6 -5 -4 -2 -2 -2 -2 -2 -3 -6 -9 -12 -12 -12 -13 -14 -16 -17 -17 -14 -14 -16 -16 -16 -16
-6 -6 -6 -6 -6 -6 -6 -6 -6 -7 -7 -7 -7 -7 -7 -6 -7 -5 -4 -4 -3 -3 -2 -2 -2 -2 -3 -5 -7 -9 -11 -12 -12 -13 -15 -15 -13 -14 -15 -14 -14 -14 -15
-7 -7 -7 -7 -7 -7 -7 -6 -6 -6 -6 -5 -5 -4 -5 -6 -6 -5 -2 -2 -2 -2 -1 -1 -2 -3 -3 -4 -5 -7 -9 -10 -10 -11 -11 -12 -12 -12 -12 -12 -13 -14 -14
-6 -2 -1 -1 -1 -1 -1 -2 -1 -2 -2 -1 -1 -1 -1 -1 -1 -1 -1 -0 0 0 -1 -1 -1 -1 -3 -4 -4 -5 -6 -8 -9 -10 -9 -9 -10 -10 -10 -10 -12 -14 -13
-5 -1 -1 -1 -2 -2 -2 -1 -1 -2 -1 -1 -1 -2 -2 -2 -1 -1 -1 -1 -1 -1 -1 -1 -1 -1 -1 -1 -2 -3 -3 -3 -3 -5 -7 -7 -6 -7 -6 -7 -9 -12 -13
-5 -3 -2 -1 -1 -1 -1 -1 -2 -1 -1 -2 -2 -2 -1 -2 -3 -3 -2 -1 -2 -2 -2 -2 -2 -1 -1 -1 -2 -2 -3 -3 -3 -4 -4 -4 -5 -5 -5 -7 -7 -12 -9
-5 -6 -4 -2 -1 -2 -1 -1 -1 -1 -2 -2 -2 -3 -4 -3 -3 -3 -2 -2 -2 -2 -2 -2 -2 -2 -2 -2 -2 -3 -3 -3 -3 -4 -4 -4 -5 -5 -6 -6 -6 -7 -6
-7 -3 -3 -4 -3 -3 -2 -1 -1 -1 -1 -1 -1 -1 -2 -3 -4 -3 -2 -2 -2 -3 -3 -2 -2 -2 -2 -2 -2 -3 -3 -4 -4 -4 -4 -4 -5 -5 -6 -6 -6 -6 -6
-15 -12 -6 -6 -4 -4 -3 -3 -2 -1 -1 -1 -2 -2 -1 -2 -3 -3 -3 -3 -2 -2 -3 -2 -2 -2 -2 -2 -2 -3 -3 -4 -4 -4 -4 -5 -5 -5 -5 -5 -6 -6 -7
-15 -14 -9 -6 -5 -5 -4 -5 -6 -6 -6 -6 -4 -5 -4 -2 -2 -3 -3 -3 -3 -2 -2 -2 -2 -2 -2 -3 -3 -3 -4 -4 -4 -4 -4 -5 -5 -5 -5 -5 -6 -7 -7
-14 -15 -12 -9 -8 -6 -5 -5 -5 -6 -6 -6 -6 -6 -5 -3 -3 -3 -3 -3 -3 -3 -3 -3 -3 -2 -2 -3 -3 -3 -4 -4 -4 -5 -5 -5 -5 -5 -5 -6 -6 -7 -7
-11 -10 -11 -10 -9 -7 -6 -6 -6 -6 -6 -6 -5 -5 -5 -4 -3 -3 -3 -3 -4 -4 -3 -3 -3 -3 -3 -4 -4 -4 -4 -5 -5 -5 -5 -5 -5 -5 -6 -6 -6 -7 -8
-10 -10 -12 -13 -11 -10 -10 -9 -9 -7 -7 -5 -4 -4 -4 -4 -3 -3 -3 -3 -4 -4 -4 -4 -4 -4 -4 -4 -4 -4 -5 -5 -5 -5 -5 -5 -5 -5 -6 -6 -7 -8 -8
-9 -9 -10 -13 -13 -11 -11 -11 -11 -11 -12 -8 -4 -3 -3 -3 -3 -3 -3 -3 -4 -4 -4 -4 -4 -5 -5 -5 -5 -5 -5 -5 -5 -5 -5 -5 -6 -6 -6 -7 -7 -8 -8